Notices

What's New in latest Release from April 7th, 2021:

- Updated Glossary, including Speed of Maximum Gust, and Total Hourly Precipitation

- Updated national and regional climate services offices contacts and prices information

- Addition of station inventory lists for 1981-2010, 1971-2000, and 1961-1990 Normals.

If you haven't already, please take our survey and provide feedback about our website: https://eccc.sondage-survey.ca/f/LanguageSelection.aspx?s=442ca660-fcf1-47c0-95a9-59707d6fd709

Hourly Data Report for October 07, 2019

SAINT JOHN A
NEW BRUNSWICK
Current Station Operator: NAVCAN

45°18'58.000" N
65°53'24.000" W
108.80 m
8104901
71609
YSJ

Download Data

Hourly Data (October 2019)
Hourly Data Report for October 7, 2019
TIME
LST
Temp Definition
°C
Dew Point Definition
°C
Rel Hum Definition
%
Precip. Amount Definition
mm

Wind Dir Definition
10's deg

Wind Spd Definition
km/h
Visibility Definition
km
Stn Press Definition
kPa
Hmdx Definition


Wind Chill Definition


Weather Definition


00:00 11.7 11.0 95   20 33 9.7 101.04     Fog
01:00 12.1 11.7 97   22 32 4.8 101.03     Rain,Fog
02:00 12.2 12.0 98   21 37 4.8 100.97     Rain,Fog
03:00 12.3 12.3 100   21 27 4.8 100.93     Rain,Fog
04:00 12.7 12.7 100   21 36 4.8 100.86     Rain,Fog
05:00 12.9 12.9 100   22 24 4.8 100.86     Rain,Fog
06:00 13.2 13.2 100   22 26 3.2 100.84     Rain,Fog
07:00 13.3 13.3 100   21 30 3.2 100.84     Moderate Drizzle,Fog
08:00 13.6 13.6 100   22 25 3.2 100.84     Rain,Fog
09:00 13.8 13.8 100   21 29 3.2 100.81     Drizzle,Fog
10:00 14.1 14.1 100   21 33 4.8 100.79     Drizzle,Fog
11:00 14.3 13.9 97   21 23 12.9 100.77     Rain
12:00 14.5 13.7 95   20 30 12.9 100.69     LegendNANA
13:00 15.4 13.7 89   20 33 16.1 100.63     LegendNANA
14:00 14.5 13.6 94   21 31 12.9 100.58     Rain
15:00 15.0 13.9 93   21 39 12.9 100.54     Rain
16:00 14.7 14.0 96   21 37 12.9 100.54     Rain
17:00 14.1 13.9 98   20 30 8.1 100.52     Rain,Fog
18:00 14.0 14.0 100   21 29 3.2 100.52     Rain,Fog
19:00 13.8 13.8 100   23 14 4.8 100.53     Rain,Fog
20:00 14.0 14.0 100   22 20 4.8 100.54     Moderate Rain,Fog
21:00 13.0 13.0 100   1 13 8.1 100.55     Rain,Fog
22:00 12.6 12.6 100   31 7 4.8 100.59     Moderate Rain,Fog
23:00 12.5 12.5 100   34 7 8.1 100.55     Rain,Fog

Notes on Data Quality.

Legend

  • E = Estimated
  • M = Missing
  • NA = Not Available*
  • [empty] = Indicates an unobserved value
Date modified: